Change the Weather History Date:

Sunday, March 16, 2014

  Actual Average (KLNS) Record (KLNS)
Temperature  
Mean Temperature 36 °F -  
Max Temperature 41 °F 51 °F 79 °F (1990)
Min Temperature 30 °F 30 °F 13 °F (1993)
Degree Days  
Heating Degree Days 30    
Moisture  
Dew Point 13 °F    
Average Humidity 43    
Maximum Humidity 65    
Minimum Humidity 26    
Precipitation  
Precipitation 0.00 in - - ()
Sea Level Pressure  
Sea Level Pressure 30.14 in    
Wind  
Wind Speed 9 mph (North)    
Max Wind Speed 15 mph    
Max Gust Speed 17 mph    
Visibility 10 miles    
Events      
Averages and records for this station are not official NWS values.
T = Trace of Precipitation, MM = Missing Value Source: NWS Daily Summary

Daily Weather History Graph

Daily Weather History Graph

Search for Another Location

Airport or City:

Trip Planner

Search our weather history database for the weather conditions in past years. The results will help you decide how hot, cold, wet, or windy it might be!

Date:

Astronomy

Mar. 16, 2014 Rise Set
Actual Time 7:13 AM EDT 7:11 PM EDT
Civil Twilight 6:46 AM EDT 7:38 PM EDT
Nautical Twilight 6:14 AM EDT 8:09 PM EDT
Astronomical Twilight 5:43 AM EDT 8:41 PM EDT
Moon 7:26 PM EDT (3/16) 6:55 AM EDT (3/16)
Length of Visible Light 12h 51m
Length of Day
11h 57m
Full, 100% of the Moon is Illuminated
Mar 16
Full
Mar 16
Full
Mar 23
Last Quarter
Mar 30
New
Apr 7
First Quarter

Hourly Weather History & Observations

Time (EDT) Temp. Windchill Dew Point Humidity Pressure Visibility Wind Dir Wind Speed Gust Speed Precip Events Conditions
12:15 AM 41.0 °F 37.1 °F 26.6 °F 57% 30.06 in 10.0 mi NNW 5.8 mph - N/A   Clear
12:35 AM 39.2 °F 33.6 °F 26.6 °F 61% 30.06 in 10.0 mi NNW 8.1 mph - N/A   Clear
12:55 AM 39.2 °F 32.0 °F 26.6 °F 61% 30.06 in 10.0 mi NNW 11.5 mph 16.1 mph N/A   Clear
1:15 AM 39.2 °F 30.8 °F 26.6 °F 61% 30.07 in 10.0 mi NNW 15.0 mph - N/A   Clear
1:35 AM 39.2 °F 32.5 °F 26.6 °F 61% 30.08 in 10.0 mi NNW 10.4 mph - N/A   Clear
2:15 AM 37.4 °F 31.4 °F 26.6 °F 65% 30.09 in 10.0 mi NNW 8.1 mph - N/A   Clear
2:35 AM 37.4 °F 31.4 °F 26.6 °F 65% 30.09 in 10.0 mi NW 8.1 mph - N/A   Clear
2:55 AM 35.6 °F 28.0 °F 24.8 °F 65% 30.10 in 10.0 mi NW 10.4 mph - N/A   Clear
3:15 AM 35.6 °F 28.0 °F 24.8 °F 65% 30.09 in 10.0 mi NW 10.4 mph - N/A   Clear
3:35 AM 35.6 °F 27.1 °F 24.8 °F 65% 30.08 in 10.0 mi NNW 12.7 mph - N/A   Clear
3:55 AM 35.6 °F 27.5 °F 23.0 °F 60% 30.08 in 10.0 mi NNW 11.5 mph 16.1 mph N/A   Clear
4:15 AM 35.6 °F 27.5 °F 23.0 °F 60% 30.08 in 10.0 mi NNW 11.5 mph - N/A   Clear
4:35 AM 35.6 °F 28.0 °F 23.0 °F 60% 30.08 in 10.0 mi NNW 10.4 mph - N/A   Clear
4:55 AM 33.8 °F 26.4 °F 23.0 °F 65% 30.09 in 10.0 mi NNW 9.2 mph - N/A   Clear
5:15 AM 33.8 °F 26.4 °F 21.2 °F 60% 30.10 in 10.0 mi North 9.2 mph - N/A   Clear
5:35 AM 33.8 °F 28.6 °F 21.2 °F 60% 30.12 in 10.0 mi NNW 5.8 mph - N/A   Clear
5:55 AM 33.8 °F 26.4 °F 19.4 °F 56% 30.13 in 10.0 mi North 9.2 mph 16.1 mph N/A   Clear
6:15 AM 32.0 °F 24.8 °F 19.4 °F 60% 30.13 in 10.0 mi NNW 8.1 mph - N/A   Clear
6:35 AM 32.0 °F 25.6 °F 19.4 °F 60% 30.14 in 10.0 mi NNW 6.9 mph - N/A   Clear
6:55 AM 32.0 °F 25.6 °F 19.4 °F 60% 30.15 in 10.0 mi North 6.9 mph - N/A   Clear
7:15 AM 32.0 °F 24.8 °F 19.4 °F 60% 30.16 in 10.0 mi North 8.1 mph - N/A   Clear
7:35 AM 32.0 °F 23.6 °F 17.6 °F 55% 30.17 in 10.0 mi North 10.4 mph - N/A   Clear
8:15 AM 32.0 °F 25.6 °F 15.8 °F 51% 30.17 in 10.0 mi North 6.9 mph - N/A   Clear
8:35 AM 32.0 °F 24.8 °F 15.8 °F 51% 30.17 in 10.0 mi North 8.1 mph - N/A   Clear
8:55 AM 32.0 °F 23.6 °F 14.0 °F 48% 30.18 in 10.0 mi North 10.4 mph 17.3 mph N/A   Clear
9:15 AM 32.0 °F 23.6 °F 14.0 °F 48% 30.19 in 10.0 mi North 10.4 mph - N/A   Clear
9:35 AM 33.8 °F 25.8 °F 14.0 °F 44% 30.20 in 10.0 mi North 10.4 mph - N/A   Clear
9:55 AM 33.8 °F 27.0 °F 14.0 °F 44% 30.20 in 10.0 mi North 8.1 mph - N/A   Clear
10:15 AM 33.8 °F 24.8 °F 10.4 °F 38% 30.20 in 10.0 mi North 12.7 mph - N/A   Clear
10:35 AM 35.6 °F 27.1 °F 10.4 °F 35% 30.19 in 10.0 mi North 12.7 mph - N/A   Clear
10:55 AM 35.6 °F 28.6 °F 10.4 °F 35% 30.18 in 10.0 mi NNE 9.2 mph - N/A   Clear
11:15 AM 35.6 °F 28.0 °F 10.4 °F 35% 30.18 in 10.0 mi NNE 10.4 mph - N/A   Clear
11:35 AM 35.6 °F 28.0 °F 8.6 °F 33% 30.19 in 10.0 mi North 10.4 mph 17.3 mph N/A   Clear
11:55 AM 35.6 °F 28.0 °F 8.6 °F 33% 30.19 in 10.0 mi NNW 10.4 mph - N/A   Clear
12:15 PM 37.4 °F 30.3 °F 8.6 °F 30% 30.19 in 10.0 mi NNW 10.4 mph - N/A   Clear
12:35 PM 37.4 °F 31.4 °F 8.6 °F 30% 30.19 in 10.0 mi North 8.1 mph - N/A   Clear
12:55 PM 37.4 °F 32.8 °F 6.8 °F 28% 30.18 in 10.0 mi NNE 5.8 mph - N/A   Clear
1:15 PM 35.6 °F 28.0 °F 5.0 °F 28% 30.18 in 10.0 mi NNW 10.4 mph - N/A   Clear
1:35 PM 37.4 °F 30.8 °F 5.0 °F 26% 30.19 in 10.0 mi NNW 9.2 mph 17.3 mph N/A   Clear
1:55 PM 37.4 °F 30.8 °F 5.0 °F 26% 30.18 in 10.0 mi NNW 9.2 mph - N/A   Clear
2:15 PM 37.4 °F 30.8 °F 5.0 °F 26% 30.17 in 10.0 mi North 9.2 mph - N/A   Clear
2:55 PM 37.4 °F 31.4 °F 6.8 °F 28% 30.17 in 10.0 mi NNW 8.1 mph - N/A   Clear
3:15 PM 35.6 °F 29.9 °F 6.8 °F 30% 30.17 in 10.0 mi North 6.9 mph - N/A   Partly Cloudy
3:35 PM 35.6 °F 30.7 °F 5.0 °F 28% 30.18 in 10.0 mi North 5.8 mph - N/A   Clear
3:55 PM 35.6 °F 29.2 °F 6.8 °F 30% 30.18 in 10.0 mi NNW 8.1 mph - N/A   Clear
4:15 PM 35.6 °F 29.9 °F 5.0 °F 28% 30.18 in 10.0 mi North 6.9 mph - N/A   Clear
4:35 PM 35.6 °F 30.7 °F 5.0 °F 28% 30.18 in 10.0 mi North 5.8 mph - N/A   Clear
4:55 PM 35.6 °F 31.7 °F 5.0 °F 28% 30.18 in 10.0 mi North 4.6 mph - N/A   Clear
5:15 PM 35.6 °F 29.2 °F 6.8 °F 30% 30.16 in 10.0 mi North 8.1 mph - N/A   Clear
5:35 PM 35.6 °F 29.9 °F 6.8 °F 30% 30.16 in 10.0 mi North 6.9 mph - N/A   Clear
5:55 PM 35.6 °F 29.2 °F 8.6 °F 33% 30.16 in 10.0 mi North 8.1 mph - N/A   Clear
6:15 PM 35.6 °F 29.9 °F 6.8 °F 30% 30.16 in 10.0 mi North 6.9 mph - N/A   Clear
6:35 PM 35.6 °F 30.7 °F 8.6 °F 33% 30.16 in 10.0 mi NNE 5.8 mph - N/A   Partly Cloudy
6:55 PM 33.8 °F 28.6 °F 8.6 °F 35% 30.15 in 10.0 mi NE 5.8 mph - N/A   Scattered Clouds
7:15 PM 33.8 °F 28.6 °F 8.6 °F 35% 30.16 in 10.0 mi NE 5.8 mph - N/A   Scattered Clouds
7:35 PM 33.8 °F 29.6 °F 8.6 °F 35% 30.17 in 10.0 mi NNE 4.6 mph - N/A   Mostly Cloudy
7:55 PM 32.0 °F 24.2 °F 10.4 °F 41% 30.15 in 10.0 mi NNE 9.2 mph - N/A   Scattered Clouds
8:15 PM 32.0 °F 23.6 °F 10.4 °F 41% 30.15 in 10.0 mi NNE 10.4 mph 16.1 mph N/A   Clear
8:35 PM 32.0 °F 25.6 °F 10.4 °F 41% 30.14 in 10.0 mi NE 6.9 mph - N/A   Clear
8:55 PM 32.0 °F 24.2 °F 8.6 °F 38% 30.13 in 10.0 mi NE 9.2 mph 16.1 mph N/A   Clear
9:15 PM 32.0 °F 25.6 °F 8.6 °F 38% 30.12 in 10.0 mi NE 6.9 mph - N/A   Clear
9:35 PM 32.0 °F 26.4 °F 8.6 °F 38% 30.12 in 10.0 mi NE 5.8 mph - N/A   Clear
9:55 PM 32.0 °F 25.6 °F 6.8 °F 35% 30.12 in 10.0 mi NE 6.9 mph - N/A   Clear
10:15 PM 30.2 °F 23.4 °F 8.6 °F 40% 30.11 in 10.0 mi NNE 6.9 mph - N/A   Partly Cloudy
10:35 PM 30.2 °F 24.3 °F 6.8 °F 37% 30.11 in 10.0 mi NE 5.8 mph - N/A   Clear
10:55 PM 30.2 °F 21.9 °F 6.8 °F 37% 30.10 in 10.0 mi NE 9.2 mph - N/A   Clear
11:15 PM 30.2 °F 21.9 °F 6.8 °F 37% 30.09 in 10.0 mi NE 9.2 mph - N/A   Clear
11:35 PM 30.2 °F 21.9 °F 6.8 °F 37% 30.10 in 10.0 mi NNE 9.2 mph - N/A   Partly Cloudy
11:55 PM 30.2 °F 22.6 °F 6.8 °F 37% 30.11 in 10.0 mi NNE 8.1 mph - N/A   Partly Cloudy